SPACEBEE-67 (48629 NORAD) Tracking and Keplerian Element Data

This shows tracking and keplerian element data for the satellite.

Feedback or suggestion? Click here.




ElementValue
Catalog48629
NameSPACEBEE-67
Epoch Orbit2912
Epoch Day215.14276132
Epoch Year2021
RAAN272.8295
Inclination97.2539
Eccentricity0.0013981
Argument of Perigee291.6282
Mean Anonmoly68.3462
Mean Motion15.14868377
Decay Rate2.698E-05
L11 48629U 21006EV 21215.14276132 .00002698 00000-0 14813-3 0 9990
L22 48629 97.2539 272.8295 0013981 291.6282 68.3462 15.14868377 29126

Live tracking and technical data element details for SPACEBEE-67 (NORAD 48629). SPACEBEE-67 can be tracked NOW for your location showing map with azimuth and elevation plus other details from your city location.

Track the satellite on the map from your city or location and see movement details for azimuth, elevation, latitude, longitude, range, height, and movement on the map or in text.







IsCatalogInMostPopularTable: catalog: 48629, numindb: 19
Update: records affected: 1



GetName: 48629 SPACEBEE-67

Hit Count: updated at: Wed, 04 Aug 2021 00:26:06 GMT